User: anonymous   Login
Location: Unspecified
(0.0000°N, 0.0000°E)
Time: 23:10:43
(UTC+01:00)
Language:

Cosmos 1733 Rocket - Orbit

View from above orbital plane
View from above orbital plane
View from above satellite
View from above satellite

Ground track
Ground track

The orbit data is extracted from the following two-line orbital elements,

1 16612U 86018B   16036.17953037  .00000218  00000-0  23255-4 0  9992
2 16612  82.5146  43.6395 0017733   2.0029  48.7306 14.84040102517597
Epoch (UTC): 05 February 2016 04:18:31
Eccentricity: 0.0017733
inclination: 82.5146°
perigee height: 604 km
apogee height: 629 km
right ascension of ascending node: 43.6395°
argument of perigee: 2.0029°
revolutions per day: 14.84040102
mean anomaly at epoch: 48.7306°
orbit number at epoch: 51759

The dashed part of the orbit path shows where the satellite is in the earth's shadow,  

DLR